Regional Weather Roundup
Issued by NWS

Home | Current Version | Previous Version | Graphics & Text | Print | Product List | Glossary On
Versions: 1 2 3 4 5 6 7 8 9 10 11 12 13 14 15 16 17 18 19 20 21 22 23 24 25 26 27 28 29 30 31 32 33 34 35 36 37 38 39 40 41 42 43 44 45 46 47 48 49 50
000
ASUS43 KLSX 291659
RWRMO

WEATHER SUMMARY FOR MISSOURI
NATIONAL WEATHER SERVICE SPRINGFIELD MO
1200 PM CDT SAT APR 29 2017

NOTE: "FAIR" INDICATES FEW OR NO CLOUDS BELOW 12,000 FEET WITH NO
       SIGNIFICANT WEATHER AND/OR OBSTRUCTIONS TO VISIBILITY.
       CURRENT SKY AND/OR WEATHER CONDITIONS ARE NOT AVAILABLE FOR
       CHILLICOTHE AND FARMINGTON.

MOZ001>031-035>038-043-044-053-054-291800-
...NORTHERN AND WESTERN MISSOURI...

CITY           SKY/WX    TMP DP  RH WIND       PRES   REMARKS
KANSAS CTY INT RAIN      46  45  96 E24       29.91F FOG
KANSAS C DTWN  RAIN      48  47  96 NE14      29.93F FOG
LEE`S SUMMIT   HVY RAIN  48  48 100 NE14      29.92R FOG
ST JOSEPH      LGT RAIN  46  45  96 NE16G25   29.93F
CHILLICOTHE      N/A     48  47  96 N7        29.99R
KIRKSVILLE     RAIN      47  30  51 NE20      29.96R

$$
MOZ066>068-077>081-088>096-101>105-291800-
...SOUTHWEST MISSOURI...

CITY           SKY/WX    TMP DP  RH WIND       PRES   REMARKS
SPRINGFIELD    TSTM      62  61  96 E9        29.70R
JOPLIN         TSTM      57  56  96 N7        29.74R FOG
BRANSON        CLOUDY    68  68 100 S6        29.75R FOG

$$
MOZ032>034-039>042-045>050-055>058-069>072-291800-
...CENTRAL MISSOURI...

CITY           SKY/WX    TMP DP  RH WIND       PRES   REMARKS
COLUMBIA       TSTM      57  57 100 NE24      29.78F FOG
JEFFERSON CITY TSTM      61  57  87 VRB7      29.80F FOG
ROLLA          LGT RAIN  62  32  32 SE15G25   29.76F
SEDALIA        HVY RAIN  54  54 100 N14       29.86R FOG
OSAGE BEACH    TSTM      60  59  96 NE12      29.74F FOG

$$
MOZ051-052-059>065-291800-
...EAST CENTRAL MISSOURI...

CITY           SKY/WX    TMP DP  RH WIND       PRES   REMARKS
ST LOUIS INTL  CLOUDY    61  58  90 NE8       29.89F
SPIRIT OF STL  TSTM      61  61 100 E12       29.85F
ST CHARLES     LGT RAIN  56  56 100 NE10      29.87R

$$
MOZ072>076-082>087-097>100-106>115-291800-
...SOUTH CENTRAL AND SOUTHEAST MISSOURI...

CITY           SKY/WX    TMP DP  RH WIND       PRES   REMARKS
CAPE GIRARDEAU PTSUNNY   77  69  76 SE8       29.89F
FARMINGTON     CLOUDY    68  65  90 VRB7G20   29.85F
POPLAR BLUFF   PTSUNNY   79  70  74 S17G26    29.84F
WEST PLAINS    CLOUDY    73  69  87 S12       29.78R

$$




USA.gov is the U.S. government's official web portal to all federal, state and local government web resources and services.